Wind_Speed
31 31 30 28 25 24 20 17 17 15 18 24 22 18 19 19 21 22 20 20 22 23 25 26 27 27 24 22 21 22 23 24 25 27 28 29 29 30 30 30 31 32 33 33
30 30 29 29 27 25 26 24 21 19 22 27 26 23 23 23 23 23 22 24 26 28 28 26 27 29 26 24 24 25 26 27 28 29 30 31 32 32 32 33 33 34 34 35
29 27 28 31 31 28 28 27 24 21 23 28 28 25 25 27 28 27 27 28 28 29 29 29 30 30 30 28 27 27 29 30 31 32 32 33 34 35 35 35 36 37 38 37
27 26 26 29 30 30 29 28 27 27 27 26 26 26 24 25 28 30 31 30 29 31 32 32 33 33 32 32 30 30 32 32 33 34 34 35 36 37 37 38 39 40 40 39
25 25 26 28 29 29 30 27 27 27 29 30 28 26 21 20 26 29 30 31 32 33 33 34 34 36 35 36 35 34 34 34 35 35 36 37 38 39 40 41 42 42 42 41
21 22 25 27 27 28 28 28 27 27 28 31 28 27 22 21 26 29 31 31 32 33 34 34 35 36 37 38 37 36 35 35 36 36 38 39 40 41 42 43 44 44 43 42
19 21 23 26 27 28 27 27 26 25 26 26 22 23 24 27 30 33 35 35 34 32 32 34 35 36 37 37 38 37 37 36 37 38 39 41 42 43 44 45 45 46 45 43
14 17 20 23 26 25 26 28 27 21 17 15 16 21 26 32 34 36 38 38 37 35 34 34 35 36 36 37 37 37 37 37 38 39 40 41 42 43 45 46 46 45 43 43
12 14 17 20 21 24 24 25 25 24 21 18 16 23 29 32 33 34 37 38 39 38 37 36 35 35 35 35 36 37 37 37 38 39 40 41 43 44 45 46 46 45 45 46
12 11 14 16 19 21 23 22 23 27 25 22 17 23 30 31 31 31 33 35 36 36 35 34 34 33 33 33 34 34 35 37 38 39 41 42 43 44 45 46 46 47 48 49
14 12 13 13 16 17 20 23 25 25 26 24 21 24 26 29 31 32 31 29 29 30 30 30 29 30 31 31 32 33 34 35 37 38 40 41 43 44 45 46 47 49 50 50
14 15 14 15 15 15 18 20 23 25 26 27 24 28 29 29 31 30 27 25 25 26 27 28 28 29 30 31 32 33 34 36 37 39 40 42 44 45 47 49 50 51 52 53
13 14 14 13 15 18 19 20 23 24 24 25 26 30 31 31 31 29 26 24 24 25 26 27 29 30 31 32 33 35 36 37 39 41 42 44 46 48 49 51 52 53 54 55
12 13 15 15 17 20 22 21 22 25 24 24 27 32 33 33 32 30 27 26 25 26 27 29 30 31 33 34 35 37 38 40 41 43 44 46 48 49 51 53 54 55 55 56
11 13 14 15 15 16 18 20 21 22 24 25 28 31 34 34 34 31 28 27 27 28 30 32 33 35 36 38 39 40 42 43 44 46 47 49 50 52 53 54 55 54 54 55
10 12 13 13 13 13 13 17 19 20 24 28 30 33 33 32 32 31 28 26 27 30 32 34 36 37 38 40 41 43 44 47 48 49 50 51 51 52 53 52 52 53 54 56
10 12 13 13 13 12 15 18 18 21 24 27 30 34 37 37 35 33 31 29 28 30 31 33 35 38 39 40 41 42 44 45 46 46 46 47 48 49 50 52 53 54 55 56
9 11 12 12 14 16 19 20 21 24 26 28 29 31 34 36 35 34 32 31 32 33 34 34 34 34 35 36 37 39 39 40 41 43 44 46 48 49 50 51 52 52 53 53
8 9 11 13 14 17 19 20 22 24 25 27 29 31 32 33 34 34 33 32 33 34 34 33 34 35 35 35 36 37 38 39 41 43 44 45 46 47 49 49 50 51 51 51
9 9 10 13 16 20 21 20 19 20 23 24 24 27 29 30 31 32 32 31 32 33 33 32 33 34 34 34 35 37 38 39 40 41 42 44 45 46 47 48 48 49 50 50
10 10 12 13 16 19 21 22 22 22 23 22 23 24 25 27 27 28 28 29 29 30 31 32 33 33 34 35 36 37 38 39 40 41 42 43 44 45 45 46 47 48 48 47
12 12 13 14 16 17 18 20 21 21 21 21 21 22 23 23 24 25 25 26 27 28 30 30 31 32 33 34 35 36 37 38 39 39 40 41 42 43 43 44 44 44 43 42
12 13 14 14 15 15 16 18 18 19 20 20 20 20 21 22 22 23 24 25 26 27 28 29 30 31 32 33 34 34 35 35 36 37 38 39 39 40 40 40 40 39 37 35
14 13 13 14 14 14 15 15 16 17 18 19 19 20 21 21 21 21 22 23 24 25 26 27 28 29 29 30 31 31 32 33 34 35 35 36 36 37 37 36 34 32 30 28
14 14 14 14 14 14 14 14 15 16 17 18 18 18 19 19 20 21 22 22 23 24 24 24 24 25 25 26 27 28 30 31 32 33 33 33 32 32 31 29 28 25 23 22
14 14 15 15 15 15 15 15 15 15 16 16 16 17 17 18 18 18 19 19 20 20 20 21 21 22 23 24 25 27 28 29 30 29 29 29 28 27 25 23 21 20 19 17
Wind_Direction
227 226 223 225 226 224 211 222 234 235 237 247 244 227 204 212 231 231 229 227 231 236 239 244 250 255 258 261 268 275 280 285 288 291 294 297 300 302 304 307 309 312 315 317
227 226 224 224 225 223 219 217 216 220 229 240 242 232 213 209 227 234 227 225 227 232 234 242 250 255 259 261 268 272 278 283 285 286 288 290 292 294 296 300 303 306 309 311
229 226 225 225 224 223 223 224 218 215 228 242 244 241 228 221 225 233 234 232 233 239 241 241 248 253 260 262 267 272 276 280 282 282 282 284 287 289 291 294 298 300 303 305
229 224 226 227 227 225 228 228 225 220 224 236 247 249 243 237 236 237 238 239 239 241 245 247 251 257 262 265 266 271 274 277 277 276 277 279 282 285 287 290 292 294 297 300
226 224 225 228 228 228 231 229 230 230 231 233 238 245 243 248 249 245 244 242 242 243 245 249 255 260 264 267 268 271 274 276 275 273 273 275 279 282 284 286 288 291 294 296
222 225 229 230 230 230 231 231 231 231 236 239 237 240 241 240 245 246 246 247 246 247 248 251 254 257 262 266 268 271 272 273 272 273 273 275 277 280 282 283 285 287 290 293
226 224 229 228 229 230 229 230 231 236 240 246 249 246 238 236 235 240 245 249 251 254 255 256 257 258 261 265 268 270 270 271 271 272 273 274 276 278 280 282 283 285 288 291
239 230 230 232 230 228 230 230 229 229 244 257 257 251 242 239 239 241 246 252 257 260 260 260 261 261 263 265 266 268 269 270 270 271 272 273 275 277 279 281 282 284 287 290
231 227 227 233 232 225 226 232 228 222 219 232 236 235 238 241 244 247 250 253 256 259 260 261 261 262 263 263 264 265 266 267 268 268 270 271 274 276 278 280 283 285 287 289
214 211 215 227 232 228 222 226 226 221 223 229 233 239 243 247 249 252 253 255 256 257 258 259 260 260 261 262 263 263 263 265 266 267 269 271 273 275 277 280 283 284 286 287
219 222 209 217 230 229 226 219 222 224 224 230 239 245 247 248 249 250 251 252 254 255 256 257 257 258 259 260 261 262 264 264 266 267 269 271 273 275 277 279 281 283 285 287
222 223 224 218 220 218 226 225 226 227 225 225 236 252 251 253 252 249 251 253 254 255 255 255 256 257 258 260 261 263 264 266 267 268 270 272 274 275 277 279 281 283 285 287
226 223 229 227 218 217 214 219 226 230 230 230 234 250 253 256 257 259 259 258 255 254 254 255 257 259 260 261 262 264 265 267 269 270 271 273 274 276 278 280 282 283 285 285
230 227 231 241 235 222 214 215 220 224 230 234 236 246 251 258 264 264 259 256 253 253 255 257 259 261 263 265 266 267 268 270 271 272 273 275 277 279 280 282 282 284 285 286
239 234 247 259 262 243 222 216 220 224 228 234 238 242 247 254 260 262 258 253 252 254 258 260 261 263 265 266 268 269 271 272 273 274 275 276 278 280 281 282 283 284 285 286
251 244 246 262 271 270 249 236 230 230 232 235 241 246 248 251 258 260 262 261 261 261 262 263 263 264 265 267 268 269 271 273 273 273 275 276 277 279 282 284 286 287 288 289
264 252 253 253 257 257 253 254 247 243 244 244 247 253 257 262 264 264 265 267 269 268 266 265 266 267 268 269 270 271 274 275 274 276 279 280 282 284 286 287 288 289 290 291
276 266 263 260 257 254 253 255 255 254 254 254 253 257 257 261 265 267 269 270 271 270 272 273 271 272 275 276 277 277 277 280 282 284 286 287 288 288 290 291 291 292 292 292
288 275 266 265 264 265 267 264 263 261 261 263 259 259 262 265 268 269 271 272 273 274 273 274 276 278 279 281 283 283 285 287 289 290 291 292 293 293 294 293 293 293 293 293
300 286 276 270 265 261 266 271 270 270 273 272 269 268 267 269 273 273 273 273 274 275 276 276 277 278 280 285 288 290 292 293 294 295 295 296 296 296 295 295 295 295 295 295
309 296 285 278 275 272 272 274 277 277 280 279 277 277 276 275 274 273 273 273 273 275 276 278 282 285 288 291 294 295 296 297 298 298 298 298 298 298 298 298 298 298 297 297
311 303 295 287 281 281 281 280 278 280 280 281 280 280 280 279 278 277 278 279 280 283 284 285 288 291 293 296 298 299 300 301 301 301 301 302 302 302 302 302 301 301 301 300
315 309 301 296 291 287 285 286 284 283 282 282 283 283 283 283 282 282 284 285 286 288 291 292 294 295 297 299 301 302 303 304 305 305 306 306 307 307 307 307 307 307 305 304
319 315 309 304 300 297 294 292 290 288 286 287 287 286 285 285 286 287 287 287 288 290 294 296 297 299 301 303 304 306 307 309 310 310 311 311 312 312 312 312 312 312 311 310
318 316 312 308 309 306 302 298 296 293 290 289 291 291 290 290 290 290 289 289 291 294 297 299 301 303 305 307 309 311 313 314 315 315 316 316 316 317 317 317 317 319 319 319
320 316 313 313 311 310 308 305 301 298 294 293 293 294 294 295 295 294 294 295 297 299 301 303 306 309 311 314 316 317 319 319 320 320 321 321 322 323 324 324 326 327 328 330
Height
5788 5794 5799 5804 5808 5813 5816 5822 5827 5831 5834 5833 5835 5839 5842 5846 5849 5851 5854 5856 5858 5858 5858 5858 5858 5858 5861 5862 5864 5865 5865 5865 5865 5865 5865 5865 5864 5863 5862 5861 5860 5858 5857 5855
5783 5789 5794 5797 5802 5807 5810 5815 5821 5827 5829 5829 5831 5834 5838 5841 5845 5847 5848 5850 5851 5851 5850 5854 5854 5853 5855 5856 5859 5860 5860 5860 5860 5860 5860 5859 5859 5858 5857 5856 5854 5853 5851 5850
5778 5784 5786 5791 5795 5801 5805 5809 5815 5821 5824 5823 5826 5829 5833 5836 5838 5841 5842 5844 5846 5847 5847 5848 5849 5847 5848 5851 5854 5855 5855 5855 5854 5854 5853 5853 5852 5852 5851 5850 5849 5847 5845 5843
5772 5777 5781 5785 5790 5794 5799 5803 5808 5812 5816 5819 5821 5823 5827 5829 5832 5833 5836 5839 5841 5841 5842 5844 5843 5842 5843 5845 5846 5849 5848 5848 5848 5847 5846 5846 5846 5845 5844 5843 5842 5841 5839 5837
5767 5772 5775 5780 5785 5788 5793 5798 5801 5805 5808 5812 5815 5818 5823 5825 5824 5826 5829 5831 5833 5835 5836 5838 5839 5838 5838 5839 5839 5842 5841 5840 5840 5839 5839 5839 5838 5837 5837 5836 5835 5833 5832 5830
5763 5767 5771 5776 5780 5783 5788 5792 5795 5798 5802 5805 5810 5813 5817 5819 5819 5819 5821 5823 5825 5828 5830 5832 5833 5832 5833 5833 5832 5833 5835 5834 5833 5832 5831 5830 5830 5829 5829 5828 5826 5825 5823 5821
5759 5763 5767 5770 5775 5779 5783 5787 5791 5794 5797 5800 5805 5807 5811 5811 5811 5812 5813 5815 5818 5821 5823 5824 5825 5826 5826 5826 5826 5826 5826 5826 5825 5825 5824 5823 5823 5821 5820 5819 5818 5816 5815 5812
5757 5761 5763 5766 5770 5774 5778 5782 5787 5792 5796 5799 5802 5803 5803 5802 5805 5807 5808 5810 5812 5814 5815 5816 5817 5818 5818 5819 5818 5818 5818 5818 5817 5817 5816 5815 5814 5813 5812 5810 5809 5807 5805 5803
5754 5757 5759 5762 5766 5770 5774 5777 5782 5786 5789 5792 5795 5796 5793 5795 5798 5800 5802 5803 5804 5806 5807 5808 5808 5809 5809 5810 5810 5810 5810 5809 5809 5808 5808 5807 5806 5805 5803 5801 5799 5797 5796 5794
5750 5753 5756 5759 5762 5765 5769 5774 5777 5780 5783 5786 5790 5790 5787 5788 5791 5793 5793 5794 5795 5797 5798 5799 5799 5800 5800 5801 5801 5801 5801 5801 5801 5800 5799 5798 5797 5795 5794 5792 5790 5788 5786 5783
5748 5750 5753 5756 5758 5762 5765 5768 5771 5775 5778 5782 5785 5784 5779 5780 5782 5783 5784 5785 5787 5788 5789 5790 5791 5791 5792 5793 5793 5793 5793 5793 5792 5791 5790 5789 5787 5786 5784 5782 5780 5777 5775 5772
5745 5747 5748 5751 5755 5757 5760 5764 5767 5769 5772 5775 5777 5778 5774 5773 5772 5772 5774 5777 5779 5781 5782 5782 5783 5784 5784 5785 5785 5785 5784 5784 5783 5782 5781 5780 5778 5776 5774 5772 5769 5766 5764 5760
5743 5745 5747 5749 5752 5753 5755 5758 5762 5764 5766 5769 5772 5771 5768 5767 5766 5766 5767 5769 5772 5773 5775 5775 5776 5776 5777 5777 5777 5776 5776 5775 5774 5773 5772 5770 5768 5766 5763 5760 5758 5755 5751 5748
5741 5742 5744 5744 5742 5744 5748 5751 5754 5758 5760 5762 5764 5763 5762 5760 5761 5759 5760 5762 5764 5766 5767 5768 5768 5769 5769 5768 5768 5767 5767 5766 5764 5763 5761 5759 5757 5754 5751 5748 5745 5742 5739 5735
5738 5740 5740 5739 5739 5740 5743 5746 5749 5751 5753 5755 5756 5756 5756 5755 5754 5752 5752 5754 5756 5758 5760 5760 5760 5760 5760 5759 5759 5758 5757 5755 5753 5752 5749 5747 5744 5742 5739 5736 5732 5729 5725 5721
5736 5737 5738 5737 5738 5739 5740 5742 5742 5743 5745 5747 5749 5749 5748 5748 5746 5744 5746 5748 5749 5750 5751 5751 5751 5751 5750 5750 5749 5747 5746 5744 5742 5740 5737 5735 5732 5729 5726 5722 5719 5715 5711 5707
5734 5734 5735 5736 5736 5737 5738 5736 5737 5739 5739 5741 5742 5743 5741 5740 5739 5738 5739 5741 5742 5742 5742 5742 5741 5741 5740 5739 5738 5736 5734 5732 5730 5727 5725 5722 5719 5716 5712 5709 5705 5701 5697 5693
5732 5732 5732 5733 5734 5734 5734 5731 5733 5733 5734 5735 5736 5736 5735 5734 5733 5732 5733 5734 5735 5735 5735 5734 5732 5731 5729 5728 5726 5725 5723 5720 5717 5715 5712 5709 5706 5703 5699 5695 5692 5687 5683 5678
5730 5730 5730 5730 5730 5728 5727 5727 5728 5728 5727 5728 5729 5729 5729 5728 5728 5727 5727 5727 5728 5727 5726 5726 5724 5723 5721 5719 5717 5715 5712 5709 5707 5704 5701 5697 5694 5690 5686 5682 5678 5673 5669 5664
5728 5727 5727 5727 5726 5724 5724 5723 5723 5724 5722 5723 5722 5722 5722 5722 5722 5722 5721 5721 5720 5720 5719 5718 5716 5714 5712 5710 5708 5706 5703 5700 5697 5694 5690 5686 5683 5678 5674 5669 5664 5659 5655 5650
5726 5725 5724 5723 5722 5720 5720 5720 5720 5721 5720 5718 5717 5716 5716 5716 5716 5715 5714 5714 5713 5713 5712 5710 5709 5706 5704 5702 5700 5697 5694 5691 5687 5684 5680 5675 5671 5666 5661 5656 5651 5646 5641 5636
5724 5723 5721 5720 5719 5719 5717 5716 5716 5715 5713 5713 5712 5711 5710 5710 5709 5709 5708 5707 5707 5705 5704 5703 5701 5699 5696 5694 5691 5688 5685 5681 5678 5673 5669 5664 5659 5654 5649 5644 5638 5633 5627 5623
5722 5721 5718 5717 5717 5715 5713 5712 5711 5709 5708 5708 5707 5706 5705 5705 5704 5703 5702 5701 5700 5699 5698 5696 5694 5691 5689 5686 5683 5680 5676 5672 5668 5664 5659 5654 5648 5643 5637 5632 5626 5621 5616 5612
5719 5717 5716 5714 5712 5711 5710 5708 5707 5705 5704 5703 5702 5701 5701 5700 5699 5698 5697 5696 5695 5693 5691 5689 5687 5685 5682 5679 5676 5673 5669 5664 5660 5655 5650 5644 5639 5633 5628 5622 5617 5613 5608 5604
5717 5715 5713 5711 5710 5708 5707 5705 5704 5702 5700 5699 5698 5697 5696 5695 5694 5693 5692 5690 5689 5687 5685 5683 5681 5679 5676 5673 5670 5666 5662 5657 5652 5647 5642 5636 5631 5626 5620 5615 5610 5606 5602 5598
5715 5713 5711 5709 5707 5705 5704 5702 5700 5699 5697 5696 5694 5693 5692 5691 5689 5688 5687 5685 5684 5682 5680 5678 5676 5674 5671 5668 5664 5660 5655 5651 5646 5641 5635 5630 5625 5620 5616 5611 5607 5602 5599 5596